CZ-4 DEB, 26150

Orbit data source: Space-Track

CZ-4 DEB, 26150 is space debris in SSO originally from a launch on Thu, 14 Oct 1999 UTC launched from the Taiyaun Space Center, China (TSC). Debris objects in space refer to the collection of defunct objects orbiting the Earth. Examples of debris include non-operational satellites, rocket bodies, and fragments generated from explosions, collisions, or faulty payload assembly.

Loading next visibility...
Identifier
26150, 1999-057AL
Orbit
SSO
Country
Flag of CNCN / PRC
Related business
Manufacturer
Unknown
Mission
Spacecraft
Bus & Motor
Unknown
Mass
Unknown
Launch date (UTC)
1999-10-14 (26 years ago)
Launch vehicle
Unknown
Launch site
Taiyaun Space Center, China (TSC)
Object type
Payload
Rocket body
Debris
Shape & HBR
Unknown
Radar Cross Section
Small (<0.1 m²)

Expand to show TLE details & history
Last TLE update: 13 hours ago

TLE from 13 hours ago
0 CZ-4 DEB
1 26150U 99057AL  25258.18721395  .00002795  00000-0  17104-2 0  9990
2 26150  99.1125 341.1805 0342439  95.1249 298.2991 13.81259763277427
Epoch: 2025-09-15T04:29Z
TLE epoch observation values (Epoch: 2025-09-15T04:29:35.285Z)
Latitude
29.53511°
Longitude
-85.79845°
Altitude
850.736 km
Speed
7.487 km/s
True Right ascension
22h 23m 58s
True Declination
29° 23' 23"
Sunlit
Object was in full shadow at epoch
Visualization orbit readout
Latitude
Unknown
Longitude
Unknown
Altitude
Unknown
Speed
Unknown
Apparent Right ascension
Unknown
Apparent Declination
Unknown
Sunlit
N/A
Visualization observer readout
Local Sidereal Time
10:06:20
Azimuth
Unknown
Elevation
Unknown
Doppler factor
Unknown
Orbital elements
Apogee altitude
1,207.819 km
Perigee altitude
705.475 km
Semi-major axis
7,334.784 km
Eccentricity
0.03424
Inclination
99.1125°
RAAN
341.1805°
Arg. of periapsis
95.1249°
True anomaly
294.77475°
Mean anomaly
298.2991°
Eccentric anomaly
296.54388°
Mean motion
3.45511 °/min
Orbital period
104.19 mins
BSTAR
0.0017104
Loading maneuver chart data...
Computing Atmospheric mass density...
Loading historical data...
Loading historical data...
Loading historical data...
Loading historical data...
Loading historical data...
Loading historical data...
Loading historical data...

Documentation

Showing up to 5 results
|